Time,TemperatureF,DewpointF,PressureIn,WindDirection,WindDirectionDegrees,WindSpeedMPH,WindSpeedGustMPH,Humidity,HourlyPrecipIn,Conditions,Clouds,dailyrainin,SoftwareType,DateUTC
2013-04-06 00:01:00,38.9,31.0,29.65,SE,128,13.1,18.0,73,0.00,CLR,SKC,0.00,WeatherDisplay:10.37,2013-04-06 05:01:00,
2013-04-06 00:06:00,39.0,31.1,29.65,SE,142,13.5,19.6,73,0.00,CLR,SKC,0.00,WeatherDisplay:10.37,2013-04-06 05:06:00,
2013-04-06 00:11:00,38.9,31.0,29.65,SE,130,13.1,19.6,73,0.00,CLR,SKC,0.00,WeatherDisplay:10.37,2013-04-06 05:11:00,
2013-04-06 00:16:00,39.0,31.1,29.65,ESE,119,16.1,21.0,73,0.00,CLR,SKC,0.00,WeatherDisplay:10.37,2013-04-06 05:16:00,
2013-04-06 00:21:00,39.0,30.7,29.65,ESE,123,13.4,18.4,72,0.00,CLR,SKC,0.00,WeatherDisplay:10.37,2013-04-06 05:21:00,
2013-04-06 00:26:00,39.1,30.8,29.65,SE,132,14.0,19.6,72,0.00,CLR,SKC,0.00,WeatherDisplay:10.37,2013-04-06 05:26:00,
2013-04-06 00:31:00,39.2,31.3,29.64,SE,128,13.6,19.6,73,0.00,CLR,SKC,0.00,WeatherDisplay:10.37,2013-04-06 05:31:00,
2013-04-06 00:37:00,39.3,31.0,29.64,SE,133,15.5,21.0,72,0.00,CLR,SKC,0.00,WeatherDisplay:10.37,2013-04-06 05:37:00,
2013-04-06 00:42:00,39.3,31.0,29.64,SE,143,16.1,22.0,72,0.00,CLR,SKC,0.00,WeatherDisplay:10.37,2013-04-06 05:42:00,
2013-04-06 00:47:00,39.5,31.2,29.64,ESE,121,15.5,19.0,72,0.00,CLR,SKC,0.00,WeatherDisplay:10.37,2013-04-06 05:47:00,
2013-04-06 00:52:00,39.3,31.0,29.63,SE,126,14.2,19.6,72,0.00,CLR,SKC,0.00,WeatherDisplay:10.37,2013-04-06 05:52:00,
2013-04-06 00:57:00,39.3,31.0,29.63,SE,126,16.1,20.7,72,0.00,CLR,SKC,0.00,WeatherDisplay:10.37,2013-04-06 05:57:00,
2013-04-06 01:02:00,39.4,31.1,29.63,SE,142,14.5,20.7,72,0.00,CLR,SKC,0.00,WeatherDisplay:10.37,2013-04-06 06:02:00,
2013-04-06 01:07:00,39.3,31.4,29.63,SE,134,13.9,19.6,73,0.00,CLR,SKC,0.00,WeatherDisplay:10.37,2013-04-06 06:07:00,
2013-04-06 01:13:00,39.6,31.3,29.63,SE,125,12.6,19.6,72,0.00,CLR,SKC,0.00,WeatherDisplay:10.37,2013-04-06 06:13:00,
2013-04-06 01:19:00,39.8,31.5,29.63,SSE,151,15.1,21.0,72,0.00,CLR,SKC,0.00,WeatherDisplay:10.37,2013-04-06 06:19:00,
2013-04-06 01:24:00,40.0,31.7,29.62,SE,130,15.9,20.0,72,0.00,CLR,SKC,0.00,WeatherDisplay:10.37,2013-04-06 06:24:00,
2013-04-06 01:30:00,39.9,31.6,29.62,SSE,157,16.1,20.0,72,0.00,CLR,SKC,0.00,WeatherDisplay:10.37,2013-04-06 06:30:00,
2013-04-06 01:35:00,40.1,31.4,29.62,SSE,148,15.3,23.0,71,0.00,CLR,SKC,0.00,WeatherDisplay:10.37,2013-04-06 06:35:00,
2013-04-06 01:40:00,40.1,31.8,29.61,SE,134,15.0,20.7,72,0.00,CLR,SKC,0.00,WeatherDisplay:10.37,2013-04-06 06:40:00,
2013-04-06 01:45:00,40.1,31.8,29.61,SSE,167,12.3,18.4,72,0.00,SCT,SKC,0.00,WeatherDisplay:10.37,2013-04-06 06:45:00,
2013-04-06 01:50:00,40.2,31.9,29.61,SSE,162,13.7,19.6,72,0.00,SCT,SKC,0.00,WeatherDisplay:10.37,2013-04-06 06:50:00,
2013-04-06 01:56:00,40.3,32.0,29.61,SSE,151,15.3,20.0,72,0.00,SCT,SKC,0.00,WeatherDisplay:10.37,2013-04-06 06:56:00,
2013-04-06 02:02:00,40.5,31.8,29.60,SSE,152,18.0,25.0,71,0.00,SCT,SKC,0.00,WeatherDisplay:10.37,2013-04-06 07:02:00,
2013-04-06 02:07:00,40.7,32.0,29.60,SSE,153,16.0,23.0,71,0.00,SCT,SKC,0.00,WeatherDisplay:10.37,2013-04-06 07:07:00,
2013-04-06 02:13:00,40.7,32.0,29.60,SE,138,16.4,23.0,71,0.00,SCT,SKC,0.00,WeatherDisplay:10.37,2013-04-06 07:13:00,
2013-04-06 02:18:00,40.7,32.0,29.60,SE,136,17.9,24.0,71,0.00,SCT,SKC,0.00,WeatherDisplay:10.37,2013-04-06 07:18:00,
2013-04-06 02:23:00,40.9,32.2,29.59,SE,146,19.3,26.5,71,0.00,CLR,SKC,0.00,WeatherDisplay:10.37,2013-04-06 07:23:00,
2013-04-06 02:28:00,40.8,32.5,29.59,SE,144,15.3,20.0,72,0.00,CLR,SKC,0.00,WeatherDisplay:10.37,2013-04-06 07:28:00,
2013-04-06 02:34:00,40.7,32.0,29.59,SE,146,13.9,26.5,71,0.00,CLR,SKC,0.00,WeatherDisplay:10.37,2013-04-06 07:34:00,
2013-04-06 02:39:00,40.6,32.3,29.59,SSE,151,17.0,24.0,72,0.00,CLR,SKC,0.00,WeatherDisplay:10.37,2013-04-06 07:39:00,
2013-04-06 02:44:00,40.6,32.3,29.58,SE,145,17.0,20.7,72,0.00,CLR,SKC,0.00,WeatherDisplay:10.37,2013-04-06 07:44:00,
2013-04-06 02:49:00,40.7,32.4,29.58,SE,144,14.7,22.0,72,0.00,CLR,SKC,0.00,WeatherDisplay:10.37,2013-04-06 07:49:00,
2013-04-06 02:54:00,40.6,32.3,29.58,SE,124,16.0,21.0,72,0.00,CLR,SKC,0.00,WeatherDisplay:10.37,2013-04-06 07:54:00,
2013-04-06 03:00:00,40.4,32.1,29.57,SSE,168,16.3,21.0,72,0.00,CLR,SKC,0.00,WeatherDisplay:10.37,2013-04-06 08:00:00,
2013-04-06 03:05:00,40.4,32.1,29.57,SE,140,16.0,20.7,72,0.00,CLR,SKC,0.00,WeatherDisplay:10.37,2013-04-06 08:05:00,
2013-04-06 03:10:00,40.3,32.0,29.57,SSE,158,17.7,22.0,72,0.00,CLR,SKC,0.00,WeatherDisplay:10.37,2013-04-06 08:10:00,
2013-04-06 03:15:00,40.2,31.9,29.56,SE,131,17.2,21.0,72,0.00,CLR,SKC,0.00,WeatherDisplay:10.37,2013-04-06 08:15:00,
2013-04-06 03:20:00,40.0,31.7,29.56,SE,138,15.4,22.0,72,0.00,CLR,SKC,0.00,WeatherDisplay:10.37,2013-04-06 08:20:00,
2013-04-06 03:25:00,39.9,31.6,29.56,SE,138,17.0,21.0,72,0.00,CLR,SKC,0.00,WeatherDisplay:10.37,2013-04-06 08:25:00,
2013-04-06 03:30:00,39.7,31.8,29.55,ESE,121,15.7,23.0,73,0.00,CLR,SKC,0.00,WeatherDisplay:10.37,2013-04-06 08:30:00,
2013-04-06 03:35:00,39.7,31.8,29.55,SSE,155,19.4,23.0,73,0.00,CLR,SKC,0.00,WeatherDisplay:10.37,2013-04-06 08:35:00,
2013-04-06 03:40:00,39.6,31.7,29.55,SE,127,15.9,26.5,73,0.00,CLR,SKC,0.00,WeatherDisplay:10.37,2013-04-06 08:40:00,
2013-04-06 03:45:00,39.4,31.5,29.54,ESE,112,19.0,24.2,73,0.00,CLR,SKC,0.00,WeatherDisplay:10.37,2013-04-06 08:45:00,
2013-04-06 03:50:00,39.3,31.4,29.54,SSE,159,18.8,24.2,73,0.00,CLR,SKC,0.00,WeatherDisplay:10.37,2013-04-06 08:50:00,
2013-04-06 03:55:00,39.2,31.3,29.54,SE,144,16.0,25.3,73,0.00,CLR,SKC,0.00,WeatherDisplay:10.37,2013-04-06 08:55:00,
2013-04-06 04:00:00,39.1,31.2,29.53,SSE,148,17.7,21.9,73,0.00,CLR,SKC,0.00,WeatherDisplay:10.37,2013-04-06 09:00:00,
2013-04-06 04:05:00,39.1,31.2,29.53,SSE,147,18.5,25.0,73,0.00,CLR,SKC,0.00,WeatherDisplay:10.37,2013-04-06 09:05:00,
2013-04-06 04:10:00,39.0,31.1,29.53,SE,136,18.0,26.5,73,0.00,CLR,SKC,0.00,WeatherDisplay:10.37,2013-04-06 09:10:00,
2013-04-06 04:16:00,38.8,30.9,29.53,SSE,152,18.4,24.0,73,0.00,CLR,SKC,0.00,WeatherDisplay:10.37,2013-04-06 09:16:00,
2013-04-06 04:21:00,38.7,30.8,29.53,SE,144,15.8,21.9,73,0.00,CLR,SKC,0.00,WeatherDisplay:10.37,2013-04-06 09:21:00,
2013-04-06 04:26:00,38.6,30.7,29.53,SSE,155,14.4,20.7,73,0.00,CLR,SKC,0.00,WeatherDisplay:10.37,2013-04-06 09:26:00,
2013-04-06 04:31:00,38.6,30.7,29.53,SE,141,16.4,25.0,73,0.00,CLR,SKC,0.00,WeatherDisplay:10.37,2013-04-06 09:31:00,
2013-04-06 04:36:00,38.6,30.7,29.52,SE,135,17.9,24.2,73,0.00,CLR,SKC,0.00,WeatherDisplay:10.37,2013-04-06 09:36:00,
2013-04-06 04:41:00,38.5,30.6,29.52,SE,140,15.8,21.0,73,0.00,CLR,SKC,0.00,WeatherDisplay:10.37,2013-04-06 09:41:00,
2013-04-06 04:46:00,38.4,30.5,29.52,ESE,112,15.0,24.2,73,0.00,CLR,SKC,0.00,WeatherDisplay:10.37,2013-04-06 09:46:00,
2013-04-06 04:51:00,38.3,30.4,29.52,SSE,152,17.9,23.0,73,0.00,CLR,SKC,0.00,WeatherDisplay:10.37,2013-04-06 09:51:00,
2013-04-06 04:56:00,38.3,30.4,29.52,SE,142,18.8,25.0,73,0.00,CLR,SKC,0.00,WeatherDisplay:10.37,2013-04-06 09:56:00,
2013-04-06 05:02:00,38.2,30.3,29.52,SSE,148,15.2,21.9,73,0.00,CLR,SKC,0.00,WeatherDisplay:10.37,2013-04-06 10:02:00,
2013-04-06 05:07:00,38.0,30.1,29.51,SSE,155,14.6,20.7,73,0.00,CLR,SKC,0.00,WeatherDisplay:10.37,2013-04-06 10:07:00,
2013-04-06 05:12:00,38.0,30.1,29.51,SSE,159,16.4,24.2,73,0.00,CLR,SKC,0.00,WeatherDisplay:10.37,2013-04-06 10:12:00,
2013-04-06 05:18:00,37.8,29.9,29.50,SE,132,16.9,26.0,73,0.00,CLR,SKC,0.00,WeatherDisplay:10.37,2013-04-06 10:18:00,
2013-04-06 05:23:00,37.6,29.7,29.50,SSE,149,15.7,20.0,73,0.00,CLR,SKC,0.00,WeatherDisplay:10.37,2013-04-06 10:23:00,
2013-04-06 05:28:00,37.5,29.6,29.50,SE,145,13.4,20.7,73,0.00,CLR,SKC,0.00,WeatherDisplay:10.37,2013-04-06 10:28:00,
2013-04-06 05:34:00,37.3,29.4,29.49,SE,146,16.8,21.0,73,0.00,CLR,SKC,0.00,WeatherDisplay:10.37,2013-04-06 10:34:00,
2013-04-06 05:39:00,37.3,29.4,29.49,SE,129,16.1,24.2,73,0.00,CLR,SKC,0.00,WeatherDisplay:10.37,2013-04-06 10:39:00,
2013-04-06 05:45:00,37.2,29.3,29.48,SE,141,14.8,19.6,73,0.00,SCT,SKC,0.00,WeatherDisplay:10.37,2013-04-06 10:45:00,
2013-04-06 05:51:00,37.1,29.2,29.48,SE,126,14.5,24.2,73,0.00,SCT,SKC,0.00,WeatherDisplay:10.37,2013-04-06 10:51:00,
2013-04-06 05:56:00,37.1,29.2,29.48,SE,141,14.9,19.6,73,0.00,SCT,SKC,0.00,WeatherDisplay:10.37,2013-04-06 10:56:00,
2013-04-06 06:01:00,37.0,29.1,29.48,SE,146,14.2,23.0,73,0.00,SCT,SKC,0.00,WeatherDisplay:10.37,2013-04-06 11:01:00,
2013-04-06 06:06:00,37.0,29.5,29.47,SE,141,17.1,21.9,74,0.00,SCT,SKC,0.00,WeatherDisplay:10.37,2013-04-06 11:06:00,
2013-04-06 06:11:00,37.0,29.1,29.47,SE,132,17.4,23.0,73,0.00,SCT,SKC,0.00,WeatherDisplay:10.37,2013-04-06 11:11:00,
2013-04-06 06:16:00,37.0,29.5,29.47,SE,135,15.3,19.6,74,0.00,SCT,SKC,0.00,WeatherDisplay:10.37,2013-04-06 11:16:00,
2013-04-06 06:21:00,36.9,29.4,29.47,SSE,153,15.2,20.7,74,0.00,SCT,SKC,0.00,WeatherDisplay:10.37,2013-04-06 11:21:00,
2013-04-06 06:26:00,36.7,28.9,29.46,SE,143,13.5,19.6,73,0.00,CLR,SKC,0.00,WeatherDisplay:10.37,2013-04-06 11:26:00,
2013-04-06 06:31:00,36.8,29.0,29.46,SSE,148,14.1,21.9,73,0.00,CLR,SKC,0.00,WeatherDisplay:10.37,2013-04-06 11:31:00,
2013-04-06 06:36:00,36.8,29.3,29.46,SSE,161,15.9,21.0,74,0.00,CLR,SKC,0.00,WeatherDisplay:10.37,2013-04-06 11:36:00,
2013-04-06 06:37:00,36.9,29.4,29.46,SSE,158,15.1,21.0,74,0.00,CLR,SKC,0.00,WeatherDisplay:10.37,2013-04-06 11:37:00,
2013-04-06 06:42:00,37.0,29.5,29.46,SE,134,13.9,20.7,74,0.00,CLR,SKC,0.00,WeatherDisplay:10.37,2013-04-06 11:42:00,
2013-04-06 06:48:00,36.9,29.4,29.46,SSE,152,16.5,20.7,74,0.00,CLR,SKC,0.00,WeatherDisplay:10.37,2013-04-06 11:48:00,
2013-04-06 06:53:00,36.9,29.1,29.45,SE,142,16.5,22.0,73,0.00,CLR,SKC,0.00,WeatherDisplay:10.37,2013-04-06 11:53:00,
2013-04-06 06:58:00,36.8,29.0,29.45,SE,146,13.9,19.6,73,0.00,CLR,SKC,0.00,WeatherDisplay:10.37,2013-04-06 11:58:00,
2013-04-06 07:04:00,37.1,29.2,29.45,SE,142,14.8,21.0,73,0.00,SCT,SKC,0.00,WeatherDisplay:10.37,2013-04-06 12:04:00,
2013-04-06 07:09:00,37.2,29.3,29.45,SE,131,13.7,19.6,73,0.00,SCT,SKC,0.00,WeatherDisplay:10.37,2013-04-06 12:09:00,
2013-04-06 07:14:00,37.5,29.6,29.45,SE,146,14.7,22.0,73,0.00,SCT,SKC,0.00,WeatherDisplay:10.37,2013-04-06 12:14:00,
2013-04-06 07:20:00,37.6,29.7,29.45,SSE,149,14.2,20.0,73,0.00,SCT,SKC,0.00,WeatherDisplay:10.37,2013-04-06 12:20:00,
2013-04-06 07:26:00,37.6,29.7,29.44,SSE,148,13.7,17.3,73,0.00,OVC,SKC,0.00,WeatherDisplay:10.37,2013-04-06 12:26:00,
2013-04-06 07:31:00,37.7,29.8,29.44,SE,141,12.3,18.0,73,0.00,OVC,SKC,0.00,WeatherDisplay:10.37,2013-04-06 12:31:00,
2013-04-06 07:36:00,37.7,29.8,29.44,SSE,160,17.4,21.0,73,0.00,OVC,SKC,0.00,WeatherDisplay:10.37,2013-04-06 12:36:00,
2013-04-06 07:41:00,37.8,29.9,29.43,SSE,153,15.7,19.0,73,0.00,OVC,SKC,0.00,WeatherDisplay:10.37,2013-04-06 12:41:00,
2013-04-06 07:46:00,37.8,29.9,29.43,SSE,151,13.9,19.6,73,0.00,BKN,SKC,0.00,WeatherDisplay:10.37,2013-04-06 12:46:00,
2013-04-06 07:51:00,37.8,29.9,29.43,SSE,157,14.6,19.6,73,0.00,BKN,SKC,0.00,WeatherDisplay:10.37,2013-04-06 12:51:00,
2013-04-06 07:56:00,37.9,30.0,29.43,SSE,150,14.4,19.6,73,0.00,BKN,SKC,0.00,WeatherDisplay:10.37,2013-04-06 12:56:00,
2013-04-06 08:01:00,37.9,30.0,29.43,SSE,148,15.4,19.6,73,0.00,BKN,SKC,0.00,WeatherDisplay:10.37,2013-04-06 13:01:00,
2013-04-06 08:06:00,38.0,30.1,29.42,SSE,148,12.3,21.9,73,0.00,BKN,SKC,0.00,WeatherDisplay:10.37,2013-04-06 13:06:00,
2013-04-06 08:12:00,38.1,30.2,29.42,SSE,153,15.2,19.6,73,0.00,BKN,SKC,0.00,WeatherDisplay:10.37,2013-04-06 13:12:00,
2013-04-06 08:17:00,38.2,30.3,29.42,SSE,156,14.6,18.4,73,0.00,BKN,SKC,0.00,WeatherDisplay:10.37,2013-04-06 13:17:00,
2013-04-06 08:22:00,38.4,30.5,29.42,SE,144,13.2,17.3,73,0.00,BKN,SKC,0.00,WeatherDisplay:10.37,2013-04-06 13:22:00,
2013-04-06 08:28:00,38.8,30.9,29.41,SSE,153,12.9,17.3,73,0.00,BKN,SKC,0.00,WeatherDisplay:10.37,2013-04-06 13:28:00,
2013-04-06 08:33:00,39.3,31.4,29.41,SSE,151,14.7,20.0,73,0.00,BKN,SKC,0.00,WeatherDisplay:10.37,2013-04-06 13:33:00,
2013-04-06 08:38:00,39.6,31.7,29.41,SE,140,18.1,23.0,73,0.00,BKN,SKC,0.00,WeatherDisplay:10.37,2013-04-06 13:38:00,
2013-04-06 08:43:00,39.8,31.8,29.40,SE,143,17.4,21.9,73,0.00,CLR,SKC,0.00,WeatherDisplay:10.37,2013-04-06 13:43:00,
2013-04-06 08:48:00,40.0,32.0,29.40,SSE,156,17.9,23.0,73,0.00,CLR,SKC,0.00,WeatherDisplay:10.37,2013-04-06 13:48:00,
2013-04-06 08:53:00,40.4,32.4,29.40,SSE,148,18.9,23.0,73,0.00,CLR,SKC,0.00,WeatherDisplay:10.37,2013-04-06 13:53:00,
2013-04-06 08:58:00,40.8,32.8,29.39,SSE,147,15.4,20.7,73,0.00,CLR,SKC,0.00,WeatherDisplay:10.37,2013-04-06 13:58:00,
2013-04-06 09:04:00,41.3,33.3,29.39,SSE,155,13.6,20.7,73,0.00,CLR,SKC,0.00,WeatherDisplay:10.37,2013-04-06 14:04:00,
2013-04-06 09:09:00,41.7,33.7,29.39,SSE,164,16.2,20.0,73,0.00,CLR,SKC,0.00,WeatherDisplay:10.37,2013-04-06 14:09:00,
2013-04-06 09:14:00,42.8,34.7,29.38,SSE,154,15.4,23.0,73,0.00,CLR,SKC,0.00,WeatherDisplay:10.37,2013-04-06 14:14:00,
2013-04-06 09:20:00,44.0,35.9,29.38,SSE,163,17.4,22.0,73,0.00,CLR,SKC,0.00,WeatherDisplay:10.37,2013-04-06 14:20:00,
2013-04-06 09:25:00,44.1,35.6,29.38,SSE,158,18.4,23.0,72,0.00,CLR,SKC,0.00,WeatherDisplay:10.37,2013-04-06 14:25:00,
2013-04-06 09:30:00,44.2,36.1,29.37,South,172,17.9,23.0,73,0.00,CLR,SKC,0.00,WeatherDisplay:10.37,2013-04-06 14:30:00,
2013-04-06 09:36:00,44.6,36.5,29.37,SSE,168,19.0,23.0,73,0.00,CLR,SKC,0.00,WeatherDisplay:10.37,2013-04-06 14:36:00,
2013-04-06 09:41:00,45.0,36.2,29.36,SSE,152,15.6,21.9,71,0.00,CLR,SKC,0.00,WeatherDisplay:10.37,2013-04-06 14:41:00,
2013-04-06 09:46:00,45.4,36.9,29.36,SSE,148,15.5,24.2,72,0.00,CLR,SKC,0.00,WeatherDisplay:10.37,2013-04-06 14:46:00,
2013-04-06 09:51:00,45.8,37.3,29.36,SSE,156,15.7,20.7,72,0.00,CLR,SKC,0.00,WeatherDisplay:10.37,2013-04-06 14:51:00,
2013-04-06 09:56:00,46.4,37.9,29.36,SE,143,15.2,18.4,72,0.00,CLR,SKC,0.00,WeatherDisplay:10.37,2013-04-06 14:56:00,
2013-04-06 10:01:00,47.4,38.8,29.36,SSE,163,15.9,19.6,72,0.00,CLR,SKC,0.00,WeatherDisplay:10.37,2013-04-06 15:01:00,
2013-04-06 10:06:00,47.6,39.0,29.36,South,177,14.9,20.0,72,0.00,SCT,SKC,0.00,WeatherDisplay:10.37,2013-04-06 15:06:00,
2013-04-06 10:11:00,48.2,39.2,29.35,SSE,161,15.2,19.6,71,0.00,SCT,SKC,0.00,WeatherDisplay:10.37,2013-04-06 15:11:00,
2013-04-06 10:16:00,48.3,39.3,29.35,SSE,163,15.4,19.6,71,0.00,SCT,SKC,0.00,WeatherDisplay:10.37,2013-04-06 15:16:00,
2013-04-06 10:21:00,48.3,39.3,29.35,South,170,15.1,20.7,71,0.00,SCT,SKC,0.00,WeatherDisplay:10.37,2013-04-06 15:21:00,
2013-04-06 10:26:00,50.1,41.1,29.36,South,173,14.1,19.0,71,0.00,SCT,SKC,0.00,WeatherDisplay:10.37,2013-04-06 15:26:00,
2013-04-06 10:31:00,50.9,41.8,29.35,South,169,18.9,21.9,71,0.00,SCT,SKC,0.00,WeatherDisplay:10.37,2013-04-06 15:31:00,
2013-04-06 10:36:00,51.2,42.1,29.35,SSE,158,14.9,21.9,71,0.00,SCT,SKC,0.00,WeatherDisplay:10.37,2013-04-06 15:36:00,
2013-04-06 10:41:00,52.1,43.0,29.35,South,174,13.7,20.7,71,0.00,SCT,SKC,0.00,WeatherDisplay:10.37,2013-04-06 15:41:00,
2013-04-06 10:46:00,53.0,43.5,29.35,South,174,16.3,21.0,70,0.00,SCT,SKC,0.00,WeatherDisplay:10.37,2013-04-06 15:46:00,
2013-04-06 10:51:00,53.7,44.5,29.35,South,169,16.6,21.0,71,0.00,SCT,SKC,0.00,WeatherDisplay:10.37,2013-04-06 15:51:00,
2013-04-06 10:56:00,54.6,44.6,29.34,South,173,15.4,22.0,69,0.00,SCT,SKC,0.00,WeatherDisplay:10.37,2013-04-06 15:56:00,
2013-04-06 11:01:00,55.2,45.6,29.34,South,171,13.5,18.4,70,0.00,SCT,SKC,0.00,WeatherDisplay:10.37,2013-04-06 16:01:00,
2013-04-06 11:06:00,55.8,45.8,29.34,South,175,14.0,22.0,69,0.00,CLR,SKC,0.00,WeatherDisplay:10.37,2013-04-06 16:06:00,
2013-04-06 11:12:00,56.6,46.5,29.34,SSE,167,11.6,15.0,69,0.00,CLR,SKC,0.00,WeatherDisplay:10.37,2013-04-06 16:12:00,
2013-04-06 11:18:00,57.4,46.9,29.34,South,175,9.8,17.3,68,0.00,CLR,SKC,0.00,WeatherDisplay:10.37,2013-04-06 16:18:00,
2013-04-06 11:23:00,57.5,46.2,29.33,SSE,155,12.1,17.3,66,0.00,CLR,SKC,0.00,WeatherDisplay:10.37,2013-04-06 16:23:00,
2013-04-06 11:28:00,57.6,46.7,29.33,SE,130,13.0,18.4,67,0.00,CLR,SKC,0.00,WeatherDisplay:10.37,2013-04-06 16:28:00,
2013-04-06 11:33:00,57.9,47.0,29.33,South,178,12.2,21.9,67,0.00,CLR,SKC,0.00,WeatherDisplay:10.37,2013-04-06 16:33:00,
2013-04-06 11:38:00,57.6,47.1,29.33,South,176,13.1,25.0,68,0.00,CLR,SKC,0.00,WeatherDisplay:10.37,2013-04-06 16:38:00,
2013-04-06 11:43:00,57.8,47.3,29.33,South,175,12.5,19.6,68,0.00,SCT,SKC,0.00,WeatherDisplay:10.37,2013-04-06 16:43:00,
2013-04-06 11:48:00,57.9,47.0,29.33,South,170,13.4,19.6,67,0.00,SCT,SKC,0.00,WeatherDisplay:10.37,2013-04-06 16:48:00,
2013-04-06 11:53:00,57.4,46.9,29.33,South,173,9.8,16.1,68,0.00,SCT,SKC,0.00,WeatherDisplay:10.37,2013-04-06 16:53:00,
2013-04-06 11:58:00,57.6,47.1,29.33,South,173,16.3,19.6,68,0.00,SCT,SKC,0.00,WeatherDisplay:10.37,2013-04-06 16:58:00,
2013-04-06 12:03:00,58.3,47.8,29.33,SSW,201,8.5,24.2,68,0.00,BKN,SKC,0.00,WeatherDisplay:10.37,2013-04-06 17:03:00,
2013-04-06 12:08:00,58.4,47.5,29.33,South,171,12.4,21.9,67,0.00,BKN,SKC,0.00,WeatherDisplay:10.37,2013-04-06 17:08:00,
2013-04-06 12:13:00,58.9,48.0,29.32,South,185,7.5,18.4,67,0.00,BKN,SKC,0.00,WeatherDisplay:10.37,2013-04-06 17:13:00,
2013-04-06 12:18:00,59.0,47.7,29.32,South,187,11.8,20.7,66,0.00,BKN,SKC,0.00,WeatherDisplay:10.37,2013-04-06 17:18:00,
2013-04-06 12:23:00,59.2,48.2,29.32,WSW,242,6.5,15.0,67,0.00,BKN,SKC,0.00,WeatherDisplay:10.37,2013-04-06 17:23:00,
2013-04-06 12:28:00,59.1,47.7,29.32,South,175,11.8,16.1,66,0.00,BKN,SKC,0.00,WeatherDisplay:10.37,2013-04-06 17:28:00,
2013-04-06 12:33:00,58.7,47.8,29.31,South,189,11.9,17.3,67,0.00,BKN,SKC,0.00,WeatherDisplay:10.37,2013-04-06 17:33:00,
2013-04-06 12:38:00,58.6,47.7,29.31,WSW,241,9.3,14.0,67,0.00,BKN,SKC,0.00,WeatherDisplay:10.37,2013-04-06 17:38:00,
2013-04-06 12:43:00,58.6,48.1,29.31,SW,227,8.7,13.8,68,0.00,OVC,SKC,0.00,WeatherDisplay:10.37,2013-04-06 17:43:00,
2013-04-06 12:48:00,58.7,47.8,29.31,SW,216,7.5,10.4,67,0.00,OVC,SKC,0.00,WeatherDisplay:10.37,2013-04-06 17:48:00,
2013-04-06 12:53:00,58.6,48.1,29.30,SSW,207,6.7,11.5,68,0.00,OVC,SKC,0.00,WeatherDisplay:10.37,2013-04-06 17:53:00,
2013-04-06 12:58:00,58.3,47.8,29.30,SSW,210,5.5,11.5,68,0.00,OVC,SKC,0.00,WeatherDisplay:10.37,2013-04-06 17:58:00,
2013-04-06 13:03:00,58.1,47.6,29.30,South,190,6.5,12.0,68,0.00,OVC,SKC,0.00,WeatherDisplay:10.37,2013-04-06 18:03:00,
2013-04-06 13:08:00,57.9,47.8,29.29,South,191,9.4,15.0,69,0.00,OVC,SKC,0.00,WeatherDisplay:10.37,2013-04-06 18:08:00,
2013-04-06 13:13:00,57.8,47.3,29.29,SW,214,3.1,9.2,68,0.00,OVC,SKC,0.00,WeatherDisplay:10.37,2013-04-06 18:13:00,
2013-04-06 13:18:00,57.8,47.7,29.29,SW,223,6.5,13.0,69,0.00,OVC,SKC,0.00,WeatherDisplay:10.37,2013-04-06 18:18:00,
2013-04-06 13:23:00,58.0,47.9,29.29,SW,214,2.6,5.8,69,0.00,SCT,SKC,0.00,WeatherDisplay:10.37,2013-04-06 18:23:00,
2013-04-06 13:28:00,58.2,48.1,29.29,South,175,6.1,11.5,69,0.00,SCT,SKC,0.00,WeatherDisplay:10.37,2013-04-06 18:28:00,
2013-04-06 13:33:00,57.9,47.8,29.29,South,180,4.3,11.5,69,0.00,SCT,SKC,0.00,WeatherDisplay:10.37,2013-04-06 18:33:00,
2013-04-06 13:38:00,57.6,47.5,29.29,South,175,7.1,11.0,69,0.00,SCT,SKC,0.00,WeatherDisplay:10.37,2013-04-06 18:38:00,
2013-04-06 13:44:00,57.2,47.1,29.29,SSW,210,6.0,15.0,69,0.00,BKN,SKC,0.00,WeatherDisplay:10.37,2013-04-06 18:44:00,
2013-04-06 13:50:00,57.0,47.3,29.29,South,190,4.2,7.0,70,0.00,BKN,SKC,0.00,WeatherDisplay:10.37,2013-04-06 18:50:00,
2013-04-06 13:55:00,56.7,47.0,29.28,South,191,3.1,10.4,70,0.00,BKN,SKC,0.00,WeatherDisplay:10.37,2013-04-06 18:55:00,
2013-04-06 14:00:00,56.5,46.8,29.28,South,187,5.0,10.4,70,0.00,BKN,SKC,0.00,WeatherDisplay:10.37,2013-04-06 19:00:00,
2013-04-06 14:05:00,56.4,46.7,29.28,SSW,192,5.5,8.0,70,0.00,-RA,SKC,0.00,WeatherDisplay:10.37,2013-04-06 19:05:00,
2013-04-06 14:10:00,56.6,46.9,29.28,SSW,213,2.0,10.4,70,0.00,-RA,SKC,0.00,WeatherDisplay:10.37,2013-04-06 19:10:00,
2013-04-06 14:15:00,57.0,47.3,29.28,WSW,240,3.1,5.0,70,0.00,-RA,SKC,0.00,WeatherDisplay:10.37,2013-04-06 19:15:00,
2013-04-06 14:21:00,57.5,47.8,29.28,WSW,251,5.5,8.0,70,0.00,-RA,SKC,0.00,WeatherDisplay:10.37,2013-04-06 19:21:00,
2013-04-06 14:26:00,57.1,47.4,29.28,SW,221,4.7,10.4,70,0.00,-RA,SKC,0.00,WeatherDisplay:10.37,2013-04-06 19:26:00,
2013-04-06 14:31:00,56.7,47.0,29.28,West,280,5.9,11.5,70,0.00,-RA,SKC,0.00,WeatherDisplay:10.37,2013-04-06 19:31:00,
2013-04-06 14:36:00,55.8,46.2,29.28,WNW,283,7.0,12.0,70,0.00,-RA,SKC,0.00,WeatherDisplay:10.37,2013-04-06 19:36:00,
2013-04-06 14:42:00,55.0,45.4,29.29,WNW,288,7.1,10.4,70,0.00,SCT,SKC,0.00,WeatherDisplay:10.37,2013-04-06 19:42:00,
2013-04-06 14:47:00,54.4,45.2,29.29,WNW,284,8.0,9.2,71,0.00,SCT,SKC,0.00,WeatherDisplay:10.37,2013-04-06 19:47:00,
2013-04-06 14:52:00,53.3,44.1,29.29,WNW,292,5.0,10.4,71,0.00,SCT,SKC,0.00,WeatherDisplay:10.37,2013-04-06 19:52:00,
2013-04-06 14:57:00,52.8,43.3,29.29,West,273,5.4,6.0,70,0.00,SCT,SKC,0.00,WeatherDisplay:10.37,2013-04-06 19:57:00,
2013-04-06 15:02:00,52.3,43.2,29.29,WNW,282,6.9,8.1,71,0.00,SCT,SKC,0.00,WeatherDisplay:10.37,2013-04-06 20:02:00,
2013-04-06 15:08:00,51.7,42.6,29.30,West,280,6.1,9.0,71,0.00,SCT,SKC,0.00,WeatherDisplay:10.37,2013-04-06 20:08:00,
2013-04-06 15:14:00,51.0,41.9,29.30,West,281,1.7,4.6,71,0.00,SCT,SKC,0.00,WeatherDisplay:10.37,2013-04-06 20:14:00,
2013-04-06 15:20:00,50.2,41.5,29.29,SW,230,2.9,4.6,72,0.00,SCT,SKC,0.00,WeatherDisplay:10.37,2013-04-06 20:20:00,
2013-04-06 15:25:00,49.6,41.3,29.28,WNW,291,3.5,4.6,73,0.01,-RA,SKC,0.01,WeatherDisplay:10.37,2013-04-06 20:25:00,
2013-04-06 15:30:00,49.2,41.3,29.27,WNW,293,1.7,3.5,74,0.01,-RA,SKC,0.01,WeatherDisplay:10.37,2013-04-06 20:30:00,
2013-04-06 15:35:00,49.0,41.4,29.27,WNW,293,0.0,0.0,75,0.01,-RA,SKC,0.01,WeatherDisplay:10.37,2013-04-06 20:35:00,
2013-04-06 15:40:00,48.9,41.3,29.28,West,267,2.8,4.0,75,0.01,-RA,SKC,0.01,WeatherDisplay:10.37,2013-04-06 20:40:00,
2013-04-06 15:46:00,48.9,41.7,29.27,SSW,209,1.4,3.5,76,0.02,-RA,SKC,0.02,WeatherDisplay:10.37,2013-04-06 20:46:00,
2013-04-06 15:51:00,49.0,41.8,29.28,WSW,244,3.6,5.0,76,0.02,-RA,SKC,0.02,WeatherDisplay:10.37,2013-04-06 20:51:00,
2013-04-06 15:57:00,48.8,41.6,29.28,West,264,1.4,4.0,76,0.02,-RA,SKC,0.02,WeatherDisplay:10.37,2013-04-06 20:57:00,
2013-04-06 16:02:00,48.6,41.4,29.29,WSW,255,2.7,5.0,76,0.02,SCT,SKC,0.02,WeatherDisplay:10.37,2013-04-06 21:02:00,
2013-04-06 16:07:00,48.3,41.4,29.30,WSW,256,2.4,4.6,77,0.02,SCT,SKC,0.02,WeatherDisplay:10.37,2013-04-06 21:07:00,
2013-04-06 16:12:00,48.3,41.4,29.29,West,276,3.1,4.0,77,0.02,SCT,SKC,0.02,WeatherDisplay:10.37,2013-04-06 21:12:00,
2013-04-06 16:18:00,48.7,41.8,29.29,West,280,5.2,7.0,77,0.02,SCT,SKC,0.02,WeatherDisplay:10.37,2013-04-06 21:18:00,
2013-04-06 16:23:00,49.2,42.3,29.30,WNW,288,5.8,8.0,77,0.02,SCT,SKC,0.02,WeatherDisplay:10.37,2013-04-06 21:23:00,
2013-04-06 16:28:00,49.5,42.2,29.29,WNW,294,3.5,5.8,76,0.01,SCT,SKC,0.02,WeatherDisplay:10.37,2013-04-06 21:28:00,
2013-04-06 16:33:00,49.8,42.5,29.30,West,259,3.2,6.9,76,0.01,SCT,SKC,0.02,WeatherDisplay:10.37,2013-04-06 21:33:00,
2013-04-06 16:38:00,49.7,42.4,29.30,West,263,4.8,7.0,76,0.01,SCT,SKC,0.02,WeatherDisplay:10.37,2013-04-06 21:38:00,
2013-04-06 16:43:00,49.2,42.0,29.30,WNW,290,6.1,9.2,76,0.00,BKN,SKC,0.02,WeatherDisplay:10.37,2013-04-06 21:43:00,
2013-04-06 16:48:00,48.5,41.6,29.31,WNW,286,10.0,11.5,77,0.00,BKN,SKC,0.02,WeatherDisplay:10.37,2013-04-06 21:48:00,
2013-04-06 16:53:00,47.7,41.2,29.31,WNW,285,13.6,17.3,78,0.00,BKN,SKC,0.02,WeatherDisplay:10.37,2013-04-06 21:53:00,
2013-04-06 16:58:00,47.0,40.8,29.31,WNW,288,12.6,16.1,79,0.00,BKN,SKC,0.02,WeatherDisplay:10.37,2013-04-06 21:58:00,
2013-04-06 17:03:00,46.6,40.4,29.32,West,279,10.5,15.0,79,0.00,-RA,SKC,0.02,WeatherDisplay:10.37,2013-04-06 22:03:00,
2013-04-06 17:08:00,46.0,39.9,29.32,West,277,16.4,18.0,79,0.00,-RA,SKC,0.02,WeatherDisplay:10.37,2013-04-06 22:08:00,
2013-04-06 17:13:00,45.3,39.5,29.32,West,262,12.4,16.1,80,0.00,-RA,SKC,0.02,WeatherDisplay:10.37,2013-04-06 22:13:00,
2013-04-06 17:18:00,44.9,39.1,29.33,WNW,283,13.4,15.0,80,0.00,-RA,SKC,0.02,WeatherDisplay:10.37,2013-04-06 22:18:00,
2013-04-06 17:24:00,44.7,39.2,29.33,WNW,284,12.6,15.0,81,0.00,-RA,SKC,0.02,WeatherDisplay:10.37,2013-04-06 22:24:00,
2013-04-06 17:29:00,44.6,39.1,29.33,WNW,286,13.3,16.1,81,0.00,-RA,SKC,0.02,WeatherDisplay:10.37,2013-04-06 22:29:00,
2013-04-06 17:35:00,44.6,39.1,29.34,WNW,288,13.1,16.0,81,0.00,OVC,SKC,0.02,WeatherDisplay:10.37,2013-04-06 22:35:00,
2013-04-06 17:41:00,44.5,39.0,29.34,WNW,293,11.4,15.0,81,0.00,OVC,SKC,0.02,WeatherDisplay:10.37,2013-04-06 22:41:00,
2013-04-06 17:47:00,44.5,39.0,29.35,WNW,291,12.8,15.0,81,0.00,-DZ,SKC,0.02,WeatherDisplay:10.37,2013-04-06 22:47:00,
2013-04-06 17:52:00,44.5,39.0,29.35,WNW,292,12.0,17.3,81,0.00,-DZ,SKC,0.02,WeatherDisplay:10.37,2013-04-06 22:52:00,
2013-04-06 17:57:00,44.6,39.1,29.35,WNW,298,10.3,12.0,81,0.00,-DZ,SKC,0.02,WeatherDisplay:10.37,2013-04-06 22:57:00,
2013-04-06 18:02:00,44.7,38.9,29.35,WNW,290,9.9,11.5,80,0.00,OVC,SKC,0.02,WeatherDisplay:10.37,2013-04-06 23:02:00,
2013-04-06 18:07:00,44.7,38.9,29.36,WNW,290,9.6,11.5,80,0.00,OVC,SKC,0.02,WeatherDisplay:10.37,2013-04-06 23:07:00,
2013-04-06 18:13:00,44.7,38.9,29.37,WNW,290,10.4,12.7,80,0.00,OVC,SKC,0.02,WeatherDisplay:10.37,2013-04-06 23:13:00,
2013-04-06 18:19:00,44.9,39.1,29.37,WNW,296,9.6,11.5,80,0.00,OVC,SKC,0.02,WeatherDisplay:10.37,2013-04-06 23:19:00,
2013-04-06 18:24:00,45.0,38.9,29.37,WNW,296,11.9,15.0,79,0.00,OVC,SKC,0.02,WeatherDisplay:10.37,2013-04-06 23:24:00,
2013-04-06 18:29:00,45.2,39.1,29.37,WNW,301,10.5,13.8,79,0.00,OVC,SKC,0.02,WeatherDisplay:10.37,2013-04-06 23:29:00,
2013-04-06 18:34:00,45.1,39.0,29.38,WNW,298,8.2,10.4,79,0.00,OVC,SKC,0.02,WeatherDisplay:10.37,2013-04-06 23:34:00,
2013-04-06 18:39:00,45.0,38.6,29.38,WNW,300,9.8,11.5,78,0.00,OVC,SKC,0.02,WeatherDisplay:10.37,2013-04-06 23:39:00,
2013-04-06 18:44:00,45.0,38.6,29.39,WNW,295,10.1,13.0,78,0.00,OVC,SKC,0.02,WeatherDisplay:10.37,2013-04-06 23:44:00,
2013-04-06 18:50:00,45.0,38.2,29.39,NW,306,9.4,14.0,77,0.00,OVC,SKC,0.02,WeatherDisplay:10.37,2013-04-06 23:50:00,
2013-04-06 18:55:00,44.9,38.1,29.39,NW,306,7.8,10.4,77,0.00,OVC,SKC,0.02,WeatherDisplay:10.37,2013-04-06 23:55:00,
2013-04-06 19:01:00,44.7,37.6,29.40,NW,312,10.3,13.8,76,0.00,OVC,SKC,0.02,WeatherDisplay:10.37,2013-04-07 00:01:00,
2013-04-06 19:07:00,44.3,37.2,29.40,WNW,302,8.3,11.5,76,0.00,OVC,SKC,0.02,WeatherDisplay:10.37,2013-04-07 00:07:00,
2013-04-06 19:12:00,44.1,37.3,29.40,NW,308,6.4,11.5,77,0.00,OVC,SKC,0.02,WeatherDisplay:10.37,2013-04-07 00:12:00,
2013-04-06 19:17:00,44.1,37.3,29.41,WNW,301,7.7,11.5,77,0.00,OVC,SKC,0.02,WeatherDisplay:10.37,2013-04-07 00:17:00,
2013-04-06 19:23:00,44.0,36.9,29.41,WNW,292,9.0,12.0,76,0.00,OVC,SKC,0.02,WeatherDisplay:10.37,2013-04-07 00:23:00,
2013-04-06 19:28:00,44.0,36.9,29.41,WNW,302,7.5,11.5,76,0.00,OVC,SKC,0.02,WeatherDisplay:10.37,2013-04-07 00:28:00,
2013-04-06 19:33:00,43.7,36.6,29.41,WNW,302,7.9,11.5,76,0.00,OVC,SKC,0.02,WeatherDisplay:10.37,2013-04-07 00:33:00,
2013-04-06 19:38:00,43.5,36.4,29.41,WNW,303,7.8,11.5,76,0.00,OVC,SKC,0.02,WeatherDisplay:10.37,2013-04-07 00:38:00,
2013-04-06 19:43:00,43.4,36.3,29.42,NW,306,7.6,10.0,76,0.00,OVC,SKC,0.02,WeatherDisplay:10.37,2013-04-07 00:43:00,
2013-04-06 19:48:00,43.3,36.2,29.42,WNW,300,7.8,11.0,76,0.00,OVC,SKC,0.02,WeatherDisplay:10.37,2013-04-07 00:48:00,
2013-04-06 19:54:00,43.2,36.1,29.42,NW,306,6.5,11.5,76,0.00,OVC,SKC,0.02,WeatherDisplay:10.37,2013-04-07 00:54:00,
2013-04-06 19:59:00,43.2,36.1,29.42,NW,304,7.1,9.2,76,0.00,OVC,SKC,0.02,WeatherDisplay:10.37,2013-04-07 00:59:00,
2013-04-06 20:04:00,43.3,35.9,29.43,NW,304,9.3,12.0,75,0.00,OVC,SKC,0.02,WeatherDisplay:10.37,2013-04-07 01:04:00,
2013-04-06 20:09:00,42.9,35.5,29.43,NW,309,9.4,12.0,75,0.00,OVC,SKC,0.02,WeatherDisplay:10.37,2013-04-07 01:09:00,
2013-04-06 20:15:00,42.7,35.3,29.43,NW,306,8.4,11.5,75,0.00,OVC,SKC,0.02,WeatherDisplay:10.37,2013-04-07 01:15:00,
2013-04-06 20:20:00,42.5,35.1,29.44,NW,306,8.7,12.0,75,0.00,OVC,SKC,0.02,WeatherDisplay:10.37,2013-04-07 01:20:00,
2013-04-06 20:25:00,42.4,35.0,29.44,WNW,301,7.2,13.8,75,0.00,OVC,SKC,0.02,WeatherDisplay:10.37,2013-04-07 01:25:00,
2013-04-06 20:30:00,42.3,34.9,29.44,WNW,302,7.8,11.5,75,0.00,OVC,SKC,0.02,WeatherDisplay:10.37,2013-04-07 01:30:00,
2013-04-06 20:35:00,42.2,34.8,29.44,NW,304,8.0,11.5,75,0.00,OVC,SKC,0.02,WeatherDisplay:10.37,2013-04-07 01:35:00,
2013-04-06 20:40:00,42.2,34.8,29.44,NW,305,7.1,10.4,75,0.00,OVC,SKC,0.02,WeatherDisplay:10.37,2013-04-07 01:40:00,
2013-04-06 20:46:00,42.0,34.6,29.45,WNW,292,7.4,10.4,75,0.00,OVC,SKC,0.02,WeatherDisplay:10.37,2013-04-07 01:46:00,
2013-04-06 20:52:00,41.7,34.4,29.45,NW,306,7.5,9.2,75,0.00,OVC,SKC,0.02,WeatherDisplay:10.37,2013-04-07 01:52:00,
2013-04-06 20:57:00,41.6,34.3,29.46,WNW,296,6.7,10.0,75,0.00,OVC,SKC,0.02,WeatherDisplay:10.37,2013-04-07 01:57:00,
2013-04-06 21:02:00,41.5,34.2,29.46,NW,304,7.2,9.2,75,0.00,OVC,SKC,0.02,WeatherDisplay:10.37,2013-04-07 02:02:00,
2013-04-06 21:08:00,41.4,34.4,29.46,NW,305,6.1,9.2,76,0.00,OVC,SKC,0.02,WeatherDisplay:10.37,2013-04-07 02:08:00,
2013-04-06 21:13:00,41.3,34.3,29.47,NW,307,6.4,10.4,76,0.00,OVC,SKC,0.02,WeatherDisplay:10.37,2013-04-07 02:13:00,
2013-04-06 21:18:00,41.3,34.3,29.47,NW,310,8.5,13.0,76,0.00,OVC,SKC,0.02,WeatherDisplay:10.37,2013-04-07 02:18:00,
2013-04-06 21:24:00,41.1,34.1,29.47,WNW,297,7.9,10.4,76,0.00,BKN,SKC,0.02,WeatherDisplay:10.37,2013-04-07 02:24:00,
2013-04-06 21:29:00,41.0,34.0,29.48,WNW,303,8.2,11.0,76,0.00,BKN,SKC,0.02,WeatherDisplay:10.37,2013-04-07 02:29:00,
2013-04-06 21:34:00,40.9,33.9,29.48,WNW,296,8.3,11.0,76,0.00,BKN,SKC,0.02,WeatherDisplay:10.37,2013-04-07 02:34:00,
2013-04-06 21:40:00,40.7,33.7,29.48,NW,304,7.0,11.5,76,0.00,BKN,SKC,0.02,WeatherDisplay:10.37,2013-04-07 02:40:00,
2013-04-06 21:45:00,40.3,33.0,29.48,WNW,302,8.4,10.4,75,0.00,SCT,SKC,0.02,WeatherDisplay:10.37,2013-04-07 02:45:00,
2013-04-06 21:50:00,39.7,32.4,29.49,NW,308,5.4,8.1,75,0.00,SCT,SKC,0.02,WeatherDisplay:10.37,2013-04-07 02:50:00,
2013-04-06 21:55:00,39.3,32.4,29.49,NW,310,5.5,7.0,76,0.00,SCT,SKC,0.02,WeatherDisplay:10.37,2013-04-07 02:55:00,
2013-04-06 22:00:00,39.1,32.2,29.49,WNW,300,5.8,8.1,76,0.00,SCT,SKC,0.02,WeatherDisplay:10.37,2013-04-07 03:00:00,
2013-04-06 22:05:00,39.0,32.1,29.50,NW,304,5.5,10.4,76,0.00,BKN,SKC,0.02,WeatherDisplay:10.37,2013-04-07 03:05:00,
2013-04-06 22:10:00,38.9,32.0,29.50,NW,312,5.7,8.0,76,0.00,BKN,SKC,0.02,WeatherDisplay:10.37,2013-04-07 03:10:00,
2013-04-06 22:16:00,38.7,31.8,29.50,NW,304,6.1,9.0,76,0.00,BKN,SKC,0.02,WeatherDisplay:10.37,2013-04-07 03:16:00,
2013-04-06 22:21:00,38.5,31.6,29.50,NW,305,5.5,8.0,76,0.00,BKN,SKC,0.02,WeatherDisplay:10.37,2013-04-07 03:21:00,
2013-04-06 22:26:00,38.3,31.7,29.50,NW,305,5.6,8.1,77,0.00,OVC,SKC,0.02,WeatherDisplay:10.37,2013-04-07 03:26:00,
2013-04-06 22:32:00,38.1,31.5,29.51,NW,307,4.9,6.9,77,0.00,OVC,SKC,0.02,WeatherDisplay:10.37,2013-04-07 03:32:00,
2013-04-06 22:37:00,38.0,31.4,29.51,NW,306,5.6,8.0,77,0.00,OVC,SKC,0.02,WeatherDisplay:10.37,2013-04-07 03:37:00,
2013-04-06 22:42:00,38.2,31.6,29.51,NW,308,6.4,8.0,77,0.00,OVC,SKC,0.02,WeatherDisplay:10.37,2013-04-07 03:42:00,
2013-04-06 22:47:00,38.3,31.7,29.51,NW,308,5.4,8.1,77,0.00,OVC,SKC,0.02,WeatherDisplay:10.37,2013-04-07 03:47:00,
2013-04-06 22:52:00,38.3,31.7,29.51,NW,308,5.3,8.0,77,0.00,OVC,SKC,0.02,WeatherDisplay:10.37,2013-04-07 03:52:00,
2013-04-06 22:58:00,38.2,31.6,29.51,NW,305,5.8,8.0,77,0.00,OVC,SKC,0.02,WeatherDisplay:10.37,2013-04-07 03:58:00,
2013-04-06 23:00:00,38.2,31.3,29.51,NW,309,5.9,8.0,76,0.00,OVC,SKC,0.02,WeatherDisplay:10.37,2013-04-07 04:00:00,
2013-04-06 23:01:00,38.2,31.3,29.51,NW,309,5.5,8.1,76,0.00,OVC,SKC,0.02,WeatherDisplay:10.37,2013-04-07 04:01:00,
2013-04-06 23:02:00,38.2,31.3,29.51,NW,309,4.7,8.1,76,0.00,OVC,SKC,0.02,WeatherDisplay:10.37,2013-04-07 04:02:00,
2013-04-06 23:07:00,38.2,31.3,29.51,NW,304,6.0,8.1,76,0.00,OVC,SKC,0.02,WeatherDisplay:10.37,2013-04-07 04:07:00,
2013-04-06 23:12:00,38.2,31.3,29.51,WNW,303,6.1,8.1,76,0.00,OVC,SKC,0.02,WeatherDisplay:10.37,2013-04-07 04:12:00,
2013-04-06 23:17:00,38.2,31.3,29.51,NW,305,5.7,7.0,76,0.00,OVC,SKC,0.02,WeatherDisplay:10.37,2013-04-07 04:17:00,
2013-04-06 23:22:00,38.1,31.2,29.51,NW,307,5.2,7.0,76,0.00,OVC,SKC,0.02,WeatherDisplay:10.37,2013-04-07 04:22:00,
2013-04-06 23:27:00,38.2,31.3,29.51,NW,306,5.5,8.1,76,0.00,OVC,SKC,0.02,WeatherDisplay:10.37,2013-04-07 04:27:00,
2013-04-06 23:32:00,38.0,31.1,29.52,NW,308,4.0,6.9,76,0.00,OVC,SKC,0.02,WeatherDisplay:10.37,2013-04-07 04:32:00,
2013-04-06 23:37:00,37.9,31.3,29.52,WNW,302,4.7,6.0,77,0.00,OVC,SKC,0.02,WeatherDisplay:10.37,2013-04-07 04:37:00,
2013-04-06 23:42:00,38.0,31.4,29.52,WNW,300,4.1,6.0,77,0.00,OVC,SKC,0.02,WeatherDisplay:10.37,2013-04-07 04:42:00,
2013-04-06 23:47:00,38.2,31.6,29.53,WNW,302,5.8,7.0,77,0.00,OVC,SKC,0.02,WeatherDisplay:10.37,2013-04-07 04:47:00,
2013-04-06 23:52:00,38.3,31.7,29.53,NW,309,5.9,7.0,77,0.00,OVC,SKC,0.02,WeatherDisplay:10.37,2013-04-07 04:52:00,
2013-04-06 23:57:00,38.4,31.8,29.53,NW,305,6.2,9.2,77,0.00,OVC,SKC,0.02,WeatherDisplay:10.37,2013-04-07 04:57:00,